Year,Month,Day,Hour,Minute,Value (Times are PST for temperature in C)
2014,08,01,00,00,17.20
2014,08,01,00,01,17.10
2014,08,01,00,02,17.10
2014,08,01,00,03,17.10
2014,08,01,00,04,17.10
2014,08,01,00,05,17.10
2014,08,01,00,06,17.10
2014,08,01,00,07,17.10
2014,08,01,00,08,17.10
2014,08,01,00,09,17.10
2014,08,01,00,10,17.10
2014,08,01,00,11,17.10
2014,08,01,00,12,17.10
2014,08,01,00,13,17.10
2014,08,01,00,14,17.10
2014,08,01,00,15,17.10
2014,08,01,00,16,17.10
2014,08,01,00,17,17.00
2014,08,01,00,18,17.00
2014,08,01,00,19,17.00
2014,08,01,00,20,17.00
2014,08,01,00,21,17.00
2014,08,01,00,22,17.00
2014,08,01,00,23,17.00
2014,08,01,00,24,17.00
2014,08,01,00,25,16.90
2014,08,01,00,26,16.90
2014,08,01,00,27,16.90
2014,08,01,00,28,16.90
2014,08,01,00,29,16.90
2014,08,01,00,30,16.90
2014,08,01,00,31,16.90
2014,08,01,00,32,16.90
2014,08,01,00,33,16.90
2014,08,01,00,34,16.90
2014,08,01,00,35,16.90
2014,08,01,00,36,16.90
2014,08,01,00,37,16.90
2014,08,01,00,38,16.90
2014,08,01,00,39,16.90
2014,08,01,00,40,16.90
2014,08,01,00,41,16.90
2014,08,01,00,42,16.90
2014,08,01,00,43,16.90
2014,08,01,00,44,16.90
2014,08,01,00,45,16.90
2014,08,01,00,46,16.90
2014,08,01,00,47,16.90
2014,08,01,00,48,16.90
2014,08,01,00,49,16.90
2014,08,01,00,50,16.90
2014,08,01,00,51,16.90
2014,08,01,00,52,16.80
2014,08,01,00,53,16.80
2014,08,01,00,54,16.80
2014,08,01,00,55,16.80
2014,08,01,00,56,16.80
2014,08,01,00,57,16.80
2014,08,01,00,58,16.80
2014,08,01,00,59,16.80
2014,08,01,01,00,16.90
2014,08,01,01,01,16.90
2014,08,01,01,02,16.90
2014,08,01,01,03,16.90
2014,08,01,01,04,16.90
2014,08,01,01,05,16.90
2014,08,01,01,06,16.90
2014,08,01,01,07,16.90
2014,08,01,01,08,16.90
2014,08,01,01,09,16.90
2014,08,01,01,10,16.90
2014,08,01,01,11,16.90
2014,08,01,01,12,16.90
2014,08,01,01,13,16.90
2014,08,01,01,14,16.90
2014,08,01,01,15,16.90
2014,08,01,01,16,16.90
2014,08,01,01,17,16.90
2014,08,01,01,18,16.90
2014,08,01,01,19,16.90
2014,08,01,01,20,16.90
2014,08,01,01,21,16.80
2014,08,01,01,22,16.80
2014,08,01,01,23,16.80
2014,08,01,01,24,16.80
2014,08,01,01,25,16.80
2014,08,01,01,26,16.80
2014,08,01,01,27,16.80
2014,08,01,01,28,16.80
2014,08,01,01,29,16.80
2014,08,01,01,30,16.80
2014,08,01,01,31,16.80
2014,08,01,01,32,16.80
2014,08,01,01,33,16.80
2014,08,01,01,34,16.80
2014,08,01,01,35,16.80
2014,08,01,01,36,16.80
2014,08,01,01,37,16.80
2014,08,01,01,38,16.80
2014,08,01,01,39,16.80
2014,08,01,01,40,16.80
2014,08,01,01,41,16.80
2014,08,01,01,42,16.80
2014,08,01,01,43,16.80
2014,08,01,01,44,16.80
2014,08,01,01,45,16.80
2014,08,01,01,46,16.90
2014,08,01,01,47,16.90
2014,08,01,01,48,16.90
2014,08,01,01,49,16.90
2014,08,01,01,50,16.90
2014,08,01,01,51,16.90
2014,08,01,01,52,16.90
2014,08,01,01,53,16.90
2014,08,01,01,54,16.90
2014,08,01,01,55,16.90
2014,08,01,01,56,16.90
2014,08,01,01,57,16.90
2014,08,01,01,58,16.90
2014,08,01,01,59,17.00
2014,08,01,02,00,17.00
2014,08,01,02,01,17.00
2014,08,01,02,02,17.00
2014,08,01,02,03,17.10
2014,08,01,02,04,17.10
2014,08,01,02,05,17.10
2014,08,01,02,06,17.10
2014,08,01,02,07,17.10
2014,08,01,02,08,17.10
2014,08,01,02,09,17.10
2014,08,01,02,10,17.10
2014,08,01,02,11,17.10
2014,08,01,02,12,17.10
2014,08,01,02,13,17.10
2014,08,01,02,14,17.10
2014,08,01,02,15,17.10
2014,08,01,02,16,17.10
2014,08,01,02,17,17.20
2014,08,01,02,18,17.20
2014,08,01,02,19,17.20
2014,08,01,02,20,17.20
2014,08,01,02,21,17.20
2014,08,01,02,22,17.20
2014,08,01,02,23,17.20
2014,08,01,02,24,17.20
2014,08,01,02,25,17.20
2014,08,01,02,26,17.20
2014,08,01,02,27,17.20
2014,08,01,02,28,17.20
2014,08,01,02,29,17.30
2014,08,01,02,30,17.30
2014,08,01,02,31,17.30
2014,08,01,02,32,17.30
2014,08,01,02,33,17.40
2014,08,01,02,34,17.40
2014,08,01,02,35,17.40
2014,08,01,02,36,17.40
2014,08,01,02,37,17.50
2014,08,01,02,38,17.50
2014,08,01,02,39,17.60
2014,08,01,02,40,17.60
2014,08,01,02,41,17.60
2014,08,01,02,42,17.60
2014,08,01,02,43,17.60
2014,08,01,02,44,17.60
2014,08,01,02,45,17.60
2014,08,01,02,46,17.60
2014,08,01,02,47,17.60
2014,08,01,02,48,17.60
2014,08,01,02,49,17.60
2014,08,01,02,50,17.60
2014,08,01,02,51,17.60
2014,08,01,02,52,17.50
2014,08,01,02,53,17.60
2014,08,01,02,54,17.60
2014,08,01,02,55,17.60
2014,08,01,02,56,17.60
2014,08,01,02,57,17.60
2014,08,01,02,58,17.60
2014,08,01,02,59,17.70
2014,08,01,03,00,17.70
2014,08,01,03,01,17.70
2014,08,01,03,02,17.70
2014,08,01,03,03,17.70
2014,08,01,03,04,17.70
2014,08,01,03,05,17.70
2014,08,01,03,06,17.60
2014,08,01,03,07,17.60
2014,08,01,03,08,17.60
2014,08,01,03,09,17.60
2014,08,01,03,10,17.60
2014,08,01,03,11,17.60
2014,08,01,03,12,17.60
2014,08,01,03,13,17.50
2014,08,01,03,14,17.50
2014,08,01,03,15,17.50
2014,08,01,03,16,17.50
2014,08,01,03,17,17.50
2014,08,01,03,18,17.40
2014,08,01,03,19,17.40
2014,08,01,03,20,17.40
2014,08,01,03,21,17.40
2014,08,01,03,22,17.40
2014,08,01,03,23,17.30
2014,08,01,03,24,17.30
2014,08,01,03,25,17.30
2014,08,01,03,26,17.30
2014,08,01,03,27,17.30
2014,08,01,03,28,17.20
2014,08,01,03,29,17.20
2014,08,01,03,30,17.20
2014,08,01,03,31,17.20
2014,08,01,03,32,17.10
2014,08,01,03,33,17.00
2014,08,01,03,34,17.00
2014,08,01,03,35,16.90
2014,08,01,03,36,16.90
2014,08,01,03,37,16.80
2014,08,01,03,38,16.80
2014,08,01,03,39,16.80
2014,08,01,03,40,16.70
2014,08,01,03,41,16.70
2014,08,01,03,42,16.60
2014,08,01,03,43,16.50
2014,08,01,03,44,16.50
2014,08,01,03,45,16.40
2014,08,01,03,46,16.30
2014,08,01,03,47,16.20
2014,08,01,03,48,16.20
2014,08,01,03,49,16.10
2014,08,01,03,50,16.10
2014,08,01,03,51,16.10
2014,08,01,03,52,16.00
2014,08,01,03,53,16.00
2014,08,01,03,54,16.00
2014,08,01,03,55,15.90
2014,08,01,03,56,15.90
2014,08,01,03,57,15.80
2014,08,01,03,58,15.80
2014,08,01,03,59,15.70
2014,08,01,04,00,15.70
2014,08,01,04,01,15.60
2014,08,01,04,02,15.50
2014,08,01,04,03,15.40
2014,08,01,04,04,15.30
2014,08,01,04,05,15.20
2014,08,01,04,06,15.20
2014,08,01,04,07,15.10
2014,08,01,04,08,15.10
2014,08,01,04,09,15.00
2014,08,01,04,10,14.90
2014,08,01,04,11,14.90
2014,08,01,04,12,14.80
2014,08,01,04,13,14.80
2014,08,01,04,14,14.80
2014,08,01,04,15,14.70
2014,08,01,04,16,14.70
2014,08,01,04,17,14.70
2014,08,01,04,18,14.70
2014,08,01,04,19,14.60
2014,08,01,04,20,14.60
2014,08,01,04,21,14.60
2014,08,01,04,22,14.60
2014,08,01,04,23,14.60
2014,08,01,04,24,14.60
2014,08,01,04,25,14.60
2014,08,01,04,26,14.60
2014,08,01,04,27,14.60
2014,08,01,04,28,14.60
2014,08,01,04,29,14.60
2014,08,01,04,30,14.60
2014,08,01,04,31,14.60
2014,08,01,04,32,14.60
2014,08,01,04,33,14.60
2014,08,01,04,34,14.60
2014,08,01,04,35,14.60
2014,08,01,04,36,14.60
2014,08,01,04,37,14.60
2014,08,01,04,38,14.60
2014,08,01,04,39,14.60
2014,08,01,04,40,14.70
2014,08,01,04,41,14.70
2014,08,01,04,42,14.70
2014,08,01,04,43,14.70
2014,08,01,04,44,14.70
2014,08,01,04,45,14.70
2014,08,01,04,46,14.70
2014,08,01,04,47,14.70
2014,08,01,04,48,14.70
2014,08,01,04,49,14.70
2014,08,01,04,50,14.70
2014,08,01,04,51,14.70
2014,08,01,04,52,14.70
2014,08,01,04,53,14.70
2014,08,01,04,54,14.70
2014,08,01,04,55,14.70
2014,08,01,04,56,14.70
2014,08,01,04,57,14.70
2014,08,01,04,58,14.60
2014,08,01,04,59,14.60
2014,08,01,05,00,14.60
2014,08,01,05,01,14.60
2014,08,01,05,02,14.60
2014,08,01,05,03,14.60
2014,08,01,05,04,14.60
2014,08,01,05,05,14.60
2014,08,01,05,06,14.50
2014,08,01,05,07,14.50
2014,08,01,05,08,14.40
2014,08,01,05,09,14.40
2014,08,01,05,10,14.30
2014,08,01,05,11,14.30
2014,08,01,05,12,14.30
2014,08,01,05,13,14.30
2014,08,01,05,14,14.20
2014,08,01,05,15,14.20
2014,08,01,05,16,14.20
2014,08,01,05,17,14.20
2014,08,01,05,18,14.20
2014,08,01,05,19,14.20
2014,08,01,05,20,14.20
2014,08,01,05,21,14.20
2014,08,01,05,22,14.20
2014,08,01,05,23,14.20
2014,08,01,05,24,14.10
2014,08,01,05,25,14.10
2014,08,01,05,26,14.10
2014,08,01,05,27,14.10
2014,08,01,05,28,14.00
2014,08,01,05,29,14.00
2014,08,01,05,30,13.90
2014,08,01,05,31,13.90
2014,08,01,05,32,13.90
2014,08,01,05,33,13.90
2014,08,01,05,34,13.90
2014,08,01,05,35,13.90
2014,08,01,05,36,13.80
2014,08,01,05,37,13.90
2014,08,01,05,38,13.90
2014,08,01,05,39,13.90
2014,08,01,05,40,13.90
2014,08,01,05,41,13.90
2014,08,01,05,42,13.80
2014,08,01,05,43,13.80
2014,08,01,05,44,13.80
2014,08,01,05,45,13.80
2014,08,01,05,46,13.80
2014,08,01,05,47,13.80
2014,08,01,05,48,13.80
2014,08,01,05,49,13.90
2014,08,01,05,50,13.90
2014,08,01,05,51,13.90
2014,08,01,05,52,13.90
2014,08,01,05,53,13.90
2014,08,01,05,54,13.90
2014,08,01,05,55,13.90
2014,08,01,05,56,14.00
2014,08,01,05,57,14.00
2014,08,01,05,58,14.00
2014,08,01,05,59,14.00
2014,08,01,06,00,14.00
2014,08,01,06,01,14.00
2014,08,01,06,02,14.00
2014,08,01,06,03,14.00
2014,08,01,06,04,14.00
2014,08,01,06,05,14.00
2014,08,01,06,06,14.00
2014,08,01,06,07,14.00
2014,08,01,06,08,14.00
2014,08,01,06,09,14.00
2014,08,01,06,10,14.00
2014,08,01,06,11,14.00
2014,08,01,06,12,14.00
2014,08,01,06,13,14.00
2014,08,01,06,14,14.00
2014,08,01,06,15,14.00
2014,08,01,06,16,14.00
2014,08,01,06,17,14.00
2014,08,01,06,18,14.00
2014,08,01,06,19,14.00
2014,08,01,06,20,13.90
2014,08,01,06,21,13.90
2014,08,01,06,22,13.90
2014,08,01,06,23,13.90
2014,08,01,06,24,13.90
2014,08,01,06,25,14.00
2014,08,01,06,26,14.00
2014,08,01,06,27,14.10
2014,08,01,06,28,14.10
2014,08,01,06,29,14.10
2014,08,01,06,30,14.10
2014,08,01,06,31,14.20
2014,08,01,06,32,14.20
2014,08,01,06,33,14.20
2014,08,01,06,34,14.20
2014,08,01,06,35,14.20
2014,08,01,06,36,14.20
2014,08,01,06,37,14.20
2014,08,01,06,38,14.20
2014,08,01,06,39,14.10
2014,08,01,06,40,14.10
2014,08,01,06,41,14.10
2014,08,01,06,42,14.10
2014,08,01,06,43,14.10
2014,08,01,06,44,14.10
2014,08,01,06,45,14.10
2014,08,01,06,46,14.20
2014,08,01,06,47,14.20
2014,08,01,06,48,14.20
2014,08,01,06,49,14.20
2014,08,01,06,50,14.20
2014,08,01,06,51,14.20
2014,08,01,06,52,14.20
2014,08,01,06,53,14.20
2014,08,01,06,54,14.20
2014,08,01,06,55,14.20
2014,08,01,06,56,14.20
2014,08,01,06,57,14.20
2014,08,01,06,58,14.20
2014,08,01,06,59,14.20
2014,08,01,07,00,14.10
2014,08,01,07,01,14.10
2014,08,01,07,02,14.10
2014,08,01,07,03,14.10
2014,08,01,07,04,14.10
2014,08,01,07,05,14.10
2014,08,01,07,06,14.10
2014,08,01,07,07,14.20
2014,08,01,07,08,14.20
2014,08,01,07,09,14.20
2014,08,01,07,10,14.30
2014,08,01,07,11,14.30
2014,08,01,07,12,14.40
2014,08,01,07,13,14.50
2014,08,01,07,14,14.60
2014,08,01,07,15,14.70
2014,08,01,07,16,14.80
2014,08,01,07,17,14.90
2014,08,01,07,18,15.00
2014,08,01,07,19,15.20
2014,08,01,07,20,15.30
2014,08,01,07,21,15.40
2014,08,01,07,22,15.50
2014,08,01,07,23,15.60
2014,08,01,07,24,15.60
2014,08,01,07,25,15.70
2014,08,01,07,26,15.80
2014,08,01,07,27,15.90
2014,08,01,07,28,16.00
2014,08,01,07,29,16.10
2014,08,01,07,30,16.20
2014,08,01,07,31,16.30
2014,08,01,07,32,16.40
2014,08,01,07,33,16.50
2014,08,01,07,34,16.50
2014,08,01,07,35,16.60
2014,08,01,07,36,16.70
2014,08,01,07,37,16.70
2014,08,01,07,38,16.80
2014,08,01,07,39,16.90
2014,08,01,07,40,17.00
2014,08,01,07,41,17.10
2014,08,01,07,42,17.20
2014,08,01,07,43,17.30
2014,08,01,07,44,17.30
2014,08,01,07,45,17.40
2014,08,01,07,46,17.50
2014,08,01,07,47,17.60
2014,08,01,07,48,17.70
2014,08,01,07,49,17.70
2014,08,01,07,50,17.80
2014,08,01,07,51,17.90
2014,08,01,07,52,18.00
2014,08,01,07,53,18.00
2014,08,01,07,54,18.10
2014,08,01,07,55,18.20
2014,08,01,07,56,18.20
2014,08,01,07,57,18.30
2014,08,01,07,58,18.40
2014,08,01,07,59,18.40
2014,08,01,08,00,18.50
2014,08,01,08,01,18.60
2014,08,01,08,02,18.70
2014,08,01,08,03,18.80
2014,08,01,08,04,18.80
2014,08,01,08,05,18.90
2014,08,01,08,06,19.00
2014,08,01,08,07,19.10
2014,08,01,08,08,19.10
2014,08,01,08,09,19.20
2014,08,01,08,10,19.30
2014,08,01,08,11,19.30
2014,08,01,08,12,19.30
2014,08,01,08,13,19.40
2014,08,01,08,14,19.40
2014,08,01,08,15,19.40
2014,08,01,08,16,19.40
2014,08,01,08,17,19.40
2014,08,01,08,18,19.50
2014,08,01,08,19,19.50
2014,08,01,08,20,19.50
2014,08,01,08,21,19.50
2014,08,01,08,22,19.50
2014,08,01,08,23,19.50
2014,08,01,08,24,19.50
2014,08,01,08,25,19.50
2014,08,01,08,26,19.60
2014,08,01,08,27,19.60
2014,08,01,08,28,19.60
2014,08,01,08,29,19.60
2014,08,01,08,30,19.60
2014,08,01,08,31,19.60
2014,08,01,08,32,19.70
2014,08,01,08,33,19.70
2014,08,01,08,34,19.70
2014,08,01,08,35,19.80
2014,08,01,08,36,19.80
2014,08,01,08,37,19.80
2014,08,01,08,38,19.80
2014,08,01,08,39,19.80
2014,08,01,08,40,19.80
2014,08,01,08,41,19.80
2014,08,01,08,42,19.90
2014,08,01,08,43,19.90
2014,08,01,08,44,19.90
2014,08,01,08,45,20.00
2014,08,01,08,46,20.00
2014,08,01,08,47,20.00
2014,08,01,08,48,20.00
2014,08,01,08,49,20.00
2014,08,01,08,50,20.00
2014,08,01,08,51,20.00
2014,08,01,08,52,20.10
2014,08,01,08,53,20.10
2014,08,01,08,54,20.20
2014,08,01,08,55,20.20
2014,08,01,08,56,20.30
2014,08,01,08,57,20.40
2014,08,01,08,58,20.50
2014,08,01,08,59,20.50
2014,08,01,09,00,20.60
2014,08,01,09,01,20.60
2014,08,01,09,02,20.60
2014,08,01,09,03,20.60
2014,08,01,09,04,20.60
2014,08,01,09,05,20.60
2014,08,01,09,06,20.60
2014,08,01,09,07,20.70
2014,08,01,09,08,20.70
2014,08,01,09,09,20.70
2014,08,01,09,10,20.60
2014,08,01,09,11,20.50
2014,08,01,09,12,20.40
2014,08,01,09,13,20.30
2014,08,01,09,14,20.20
2014,08,01,09,15,20.10
2014,08,01,09,16,20.00
2014,08,01,09,17,19.90
2014,08,01,09,18,19.70
2014,08,01,09,19,19.60
2014,08,01,09,20,19.40
2014,08,01,09,21,19.30
2014,08,01,09,22,19.20
2014,08,01,09,23,19.10
2014,08,01,09,24,19.00
2014,08,01,09,25,18.90
2014,08,01,09,26,18.90
2014,08,01,09,27,18.80
2014,08,01,09,28,18.80
2014,08,01,09,29,18.80
2014,08,01,09,30,18.80
2014,08,01,09,31,18.80
2014,08,01,09,32,18.90
2014,08,01,09,33,18.90
2014,08,01,09,34,18.90
2014,08,01,09,35,19.00
2014,08,01,09,36,19.00
2014,08,01,09,37,19.00
2014,08,01,09,38,18.90
2014,08,01,09,39,18.90
2014,08,01,09,40,18.90
2014,08,01,09,41,18.80
2014,08,01,09,42,18.80
2014,08,01,09,43,18.80
2014,08,01,09,44,18.80
2014,08,01,09,45,18.80
2014,08,01,09,46,18.90
2014,08,01,09,47,18.90
2014,08,01,09,48,19.00
2014,08,01,09,49,19.10
2014,08,01,09,50,19.20
2014,08,01,09,51,19.40
2014,08,01,09,52,19.50
2014,08,01,09,53,19.70
2014,08,01,09,54,19.80
2014,08,01,09,55,20.00
2014,08,01,09,56,20.10
2014,08,01,09,57,20.30
2014,08,01,09,58,20.40
2014,08,01,09,59,20.50
2014,08,01,10,00,20.70
2014,08,01,10,01,20.80
2014,08,01,10,02,20.90
2014,08,01,10,03,20.90
2014,08,01,10,04,21.00
2014,08,01,10,05,21.20
2014,08,01,10,06,21.30
2014,08,01,10,07,21.40
2014,08,01,10,08,21.50
2014,08,01,10,09,21.60
2014,08,01,10,10,21.70
2014,08,01,10,11,21.70
2014,08,01,10,12,21.80
2014,08,01,10,13,21.80
2014,08,01,10,14,21.90
2014,08,01,10,15,21.90
2014,08,01,10,16,22.00
2014,08,01,10,17,22.00
2014,08,01,10,18,22.10
2014,08,01,10,19,22.10
2014,08,01,10,20,22.10
2014,08,01,10,21,22.10
2014,08,01,10,22,22.10
2014,08,01,10,23,22.00
2014,08,01,10,24,22.00
2014,08,01,10,25,22.00
2014,08,01,10,26,21.90
2014,08,01,10,27,21.80
2014,08,01,10,28,21.80
2014,08,01,10,29,21.70
2014,08,01,10,30,21.60
2014,08,01,10,31,21.50
2014,08,01,10,32,21.50
2014,08,01,10,33,21.40
2014,08,01,10,34,21.30
2014,08,01,10,35,21.30
2014,08,01,10,36,21.30
2014,08,01,10,37,21.30
2014,08,01,10,38,21.30
2014,08,01,10,39,21.30
2014,08,01,10,40,21.40
2014,08,01,10,41,21.40
2014,08,01,10,42,21.50
2014,08,01,10,43,21.50
2014,08,01,10,44,21.60
2014,08,01,10,45,21.70
2014,08,01,10,46,21.70
2014,08,01,10,47,21.80
2014,08,01,10,48,21.80
2014,08,01,10,49,21.90
2014,08,01,10,50,22.00
2014,08,01,10,51,22.10
2014,08,01,10,52,22.20
2014,08,01,10,53,22.30
2014,08,01,10,54,22.40
2014,08,01,10,55,22.50
2014,08,01,10,56,22.60
2014,08,01,10,57,22.70
2014,08,01,10,58,22.80
2014,08,01,10,59,22.80
2014,08,01,11,00,22.90
2014,08,01,11,01,22.90
2014,08,01,11,02,22.80
2014,08,01,11,03,22.80
2014,08,01,11,04,22.70
2014,08,01,11,05,22.70
2014,08,01,11,06,22.70
2014,08,01,11,07,22.60
2014,08,01,11,08,22.60
2014,08,01,11,09,22.50
2014,08,01,11,10,22.20
2014,08,01,11,11,21.70
2014,08,01,11,12,21.30
2014,08,01,11,13,20.90
2014,08,01,11,14,20.60
2014,08,01,11,15,20.30
2014,08,01,11,16,20.00
2014,08,01,11,17,19.80
2014,08,01,11,18,19.50
2014,08,01,11,19,19.30
2014,08,01,11,20,19.20
2014,08,01,11,21,19.20
2014,08,01,11,22,19.20
2014,08,01,11,23,19.20
2014,08,01,11,24,19.20
2014,08,01,11,25,19.30
2014,08,01,11,26,19.40
2014,08,01,11,27,19.50
2014,08,01,11,28,19.60
2014,08,01,11,29,19.60
2014,08,01,11,30,19.60
2014,08,01,11,31,19.60
2014,08,01,11,32,19.60
2014,08,01,11,33,19.50
2014,08,01,11,34,19.40
2014,08,01,11,35,19.40
2014,08,01,11,36,19.40
2014,08,01,11,37,19.40
2014,08,01,11,38,19.40
2014,08,01,11,39,19.30
2014,08,01,11,40,19.30
2014,08,01,11,41,19.30
2014,08,01,11,42,19.40
2014,08,01,11,43,19.40
2014,08,01,11,44,19.30
2014,08,01,11,45,19.20
2014,08,01,11,46,19.00
2014,08,01,11,47,18.80
2014,08,01,11,48,18.60
2014,08,01,11,49,18.50
2014,08,01,11,50,18.30
2014,08,01,11,51,18.30
2014,08,01,11,52,18.20
2014,08,01,11,53,18.20
2014,08,01,11,54,18.20
2014,08,01,11,55,18.20
2014,08,01,11,56,18.20
2014,08,01,11,57,18.20
2014,08,01,11,58,18.20
2014,08,01,11,59,18.20
2014,08,01,12,00,18.20
2014,08,01,12,01,18.20
2014,08,01,12,02,18.20
2014,08,01,12,03,18.30
2014,08,01,12,04,18.30
2014,08,01,12,05,18.40
2014,08,01,12,06,18.50
2014,08,01,12,07,18.60
2014,08,01,12,08,18.70
2014,08,01,12,09,18.80
2014,08,01,12,10,19.00
2014,08,01,12,11,19.10
2014,08,01,12,12,19.10
2014,08,01,12,13,19.10
2014,08,01,12,14,19.20
2014,08,01,12,15,19.20
2014,08,01,12,16,19.30
2014,08,01,12,17,19.30
2014,08,01,12,18,19.40
2014,08,01,12,19,19.50
2014,08,01,12,20,19.60
2014,08,01,12,21,19.70
2014,08,01,12,22,19.90
2014,08,01,12,23,20.00
2014,08,01,12,24,20.10
2014,08,01,12,25,20.20
2014,08,01,12,26,20.30
2014,08,01,12,27,20.30
2014,08,01,12,28,20.40
2014,08,01,12,29,20.50
2014,08,01,12,30,20.60
2014,08,01,12,31,20.70
2014,08,01,12,32,20.90
2014,08,01,12,33,21.00
2014,08,01,12,34,21.20
2014,08,01,12,35,21.40
2014,08,01,12,36,21.40
2014,08,01,12,37,21.40
2014,08,01,12,38,21.40
2014,08,01,12,39,21.30
2014,08,01,12,40,21.30
2014,08,01,12,41,21.30
2014,08,01,12,42,21.40
2014,08,01,12,43,21.50
2014,08,01,12,44,21.50
2014,08,01,12,45,21.60
2014,08,01,12,46,21.60
2014,08,01,12,47,21.70
2014,08,01,12,48,21.80
2014,08,01,12,49,21.80
2014,08,01,12,50,21.80
2014,08,01,12,51,21.80
2014,08,01,12,52,21.80
2014,08,01,12,53,21.90
2014,08,01,12,54,21.80
2014,08,01,12,55,21.80
2014,08,01,12,56,21.70
2014,08,01,12,57,21.70
2014,08,01,12,58,21.70
2014,08,01,12,59,21.70
2014,08,01,13,00,21.80
2014,08,01,13,01,21.80
2014,08,01,13,02,21.80
2014,08,01,13,03,21.70
2014,08,01,13,04,21.70
2014,08,01,13,05,21.70
2014,08,01,13,06,21.70
2014,08,01,13,07,21.70
2014,08,01,13,08,21.70
2014,08,01,13,09,21.70
2014,08,01,13,10,21.70
2014,08,01,13,11,21.70
2014,08,01,13,12,21.70
2014,08,01,13,13,21.70
2014,08,01,13,14,21.70
2014,08,01,13,15,21.60
2014,08,01,13,16,21.70
2014,08,01,13,17,21.70
2014,08,01,13,18,21.60
2014,08,01,13,19,21.60
2014,08,01,13,20,21.60
2014,08,01,13,21,21.50
2014,08,01,13,22,21.50
2014,08,01,13,23,21.50
2014,08,01,13,24,21.50
2014,08,01,13,25,21.40
2014,08,01,13,26,21.40
2014,08,01,13,27,21.30
2014,08,01,13,28,21.30
2014,08,01,13,29,21.30
2014,08,01,13,30,21.30
2014,08,01,13,31,21.40
2014,08,01,13,32,21.50
2014,08,01,13,33,21.60
2014,08,01,13,34,21.70
2014,08,01,13,35,21.70
2014,08,01,13,36,21.80
2014,08,01,13,37,21.80
2014,08,01,13,38,21.90
2014,08,01,13,39,21.90
2014,08,01,13,40,22.00
2014,08,01,13,41,22.00
2014,08,01,13,42,22.00
2014,08,01,13,43,22.00
2014,08,01,13,44,22.00
2014,08,01,13,45,22.00
2014,08,01,13,46,21.90
2014,08,01,13,47,21.90
2014,08,01,13,48,22.00
2014,08,01,13,49,22.00
2014,08,01,13,50,22.10
2014,08,01,13,51,22.10
2014,08,01,13,52,22.20
2014,08,01,13,53,22.20
2014,08,01,13,54,22.20
2014,08,01,13,55,22.20
2014,08,01,13,56,22.20
2014,08,01,13,57,22.20
2014,08,01,13,58,22.20
2014,08,01,13,59,22.20
2014,08,01,14,00,22.20
2014,08,01,14,01,22.20
2014,08,01,14,02,22.20
2014,08,01,14,03,22.20
2014,08,01,14,04,22.20
2014,08,01,14,05,22.10
2014,08,01,14,06,22.00
2014,08,01,14,07,22.00
2014,08,01,14,08,21.90
2014,08,01,14,09,21.90
2014,08,01,14,10,21.90
2014,08,01,14,11,21.90
2014,08,01,14,12,21.90
2014,08,01,14,13,22.00
2014,08,01,14,14,21.90
2014,08,01,14,15,21.90
2014,08,01,14,16,21.90
2014,08,01,14,17,21.90
2014,08,01,14,18,21.90
2014,08,01,14,19,21.90
2014,08,01,14,20,21.90
2014,08,01,14,21,21.90
2014,08,01,14,22,21.90
2014,08,01,14,23,21.90
2014,08,01,14,24,21.90
2014,08,01,14,25,22.00
2014,08,01,14,26,22.00
2014,08,01,14,27,22.10
2014,08,01,14,28,22.10
2014,08,01,14,29,22.20
2014,08,01,14,30,22.20
2014,08,01,14,31,22.30
2014,08,01,14,32,22.30
2014,08,01,14,33,22.40
2014,08,01,14,34,22.40
2014,08,01,14,35,22.40
2014,08,01,14,36,22.50
2014,08,01,14,37,22.60
2014,08,01,14,38,22.60
2014,08,01,14,39,22.70
2014,08,01,14,40,22.70
2014,08,01,14,41,22.70
2014,08,01,14,42,22.70
2014,08,01,14,43,22.70
2014,08,01,14,44,22.80
2014,08,01,14,45,22.80
2014,08,01,14,46,22.80
2014,08,01,14,47,22.80
2014,08,01,14,48,22.80
2014,08,01,14,49,22.70
2014,08,01,14,50,22.60
2014,08,01,14,51,22.50
2014,08,01,14,52,22.40
2014,08,01,14,53,22.30
2014,08,01,14,54,22.10
2014,08,01,14,55,22.00
2014,08,01,14,56,21.90
2014,08,01,14,57,21.80
2014,08,01,14,58,21.70
2014,08,01,14,59,21.60
2014,08,01,15,00,21.50
2014,08,01,15,01,21.40
2014,08,01,15,02,21.30
2014,08,01,15,03,21.20
2014,08,01,15,04,21.10
2014,08,01,15,05,21.00
2014,08,01,15,06,20.90
2014,08,01,15,07,20.70
2014,08,01,15,08,20.50
2014,08,01,15,09,20.30
2014,08,01,15,10,20.10
2014,08,01,15,11,19.90
2014,08,01,15,12,19.80
2014,08,01,15,13,19.60
2014,08,01,15,14,19.40
2014,08,01,15,15,19.20
2014,08,01,15,16,19.00
2014,08,01,15,17,18.80
2014,08,01,15,18,18.60
2014,08,01,15,19,18.50
2014,08,01,15,20,18.30
2014,08,01,15,21,18.20
2014,08,01,15,22,18.00
2014,08,01,15,23,17.90
2014,08,01,15,24,17.80
2014,08,01,15,25,17.80
2014,08,01,15,26,17.80
2014,08,01,15,27,17.70
2014,08,01,15,28,17.70
2014,08,01,15,29,17.70
2014,08,01,15,30,17.70
2014,08,01,15,31,17.70
2014,08,01,15,32,17.70
2014,08,01,15,33,17.80
2014,08,01,15,34,17.80
2014,08,01,15,35,17.90
2014,08,01,15,36,18.00
2014,08,01,15,37,18.10
2014,08,01,15,38,18.20
2014,08,01,15,39,18.30
2014,08,01,15,40,18.40
2014,08,01,15,41,18.60
2014,08,01,15,42,18.80
2014,08,01,15,43,18.90
2014,08,01,15,44,19.20
2014,08,01,15,45,19.40
2014,08,01,15,46,19.60
2014,08,01,15,47,19.80
2014,08,01,15,48,19.90
2014,08,01,15,49,20.00
2014,08,01,15,50,20.20
2014,08,01,15,51,20.30
2014,08,01,15,52,20.40
2014,08,01,15,53,20.50
2014,08,01,15,54,20.60
2014,08,01,15,55,20.70
2014,08,01,15,56,20.80
2014,08,01,15,57,20.80
2014,08,01,15,58,20.80
2014,08,01,15,59,20.80
2014,08,01,16,00,20.90
2014,08,01,16,01,20.90
2014,08,01,16,02,21.00
2014,08,01,16,03,21.00
2014,08,01,16,04,20.90
2014,08,01,16,05,20.90
2014,08,01,16,06,20.90
2014,08,01,16,07,20.90
2014,08,01,16,08,21.00
2014,08,01,16,09,21.00
2014,08,01,16,10,21.10
2014,08,01,16,11,21.10
2014,08,01,16,12,21.10
2014,08,01,16,13,21.10
2014,08,01,16,14,21.10
2014,08,01,16,15,21.10
2014,08,01,16,16,21.30
2014,08,01,16,17,21.40
2014,08,01,16,18,21.40
2014,08,01,16,19,21.40
2014,08,01,16,20,21.40
2014,08,01,16,21,21.40
2014,08,01,16,22,21.50
2014,08,01,16,23,21.40
2014,08,01,16,24,21.40
2014,08,01,16,25,21.40
2014,08,01,16,26,21.40
2014,08,01,16,27,21.50
2014,08,01,16,28,21.50
2014,08,01,16,29,21.50
2014,08,01,16,30,21.60
2014,08,01,16,31,21.60
2014,08,01,16,32,21.60
2014,08,01,16,33,21.70
2014,08,01,16,34,21.70
2014,08,01,16,35,21.70
2014,08,01,16,36,21.80
2014,08,01,16,37,21.80
2014,08,01,16,38,21.80
2014,08,01,16,39,21.80
2014,08,01,16,40,21.80
2014,08,01,16,41,21.70
2014,08,01,16,42,21.70
2014,08,01,16,43,21.70
2014,08,01,16,44,21.70
2014,08,01,16,45,21.70
2014,08,01,16,46,21.60
2014,08,01,16,47,21.40
2014,08,01,16,48,21.20
2014,08,01,16,49,21.10
2014,08,01,16,50,20.90
2014,08,01,16,51,20.80
2014,08,01,16,52,20.70
2014,08,01,16,53,20.50
2014,08,01,16,54,20.30
2014,08,01,16,55,20.10
2014,08,01,16,56,20.00
2014,08,01,16,57,19.80
2014,08,01,16,58,19.70
2014,08,01,16,59,19.50
2014,08,01,17,00,19.40
2014,08,01,17,01,19.30
2014,08,01,17,02,19.20
2014,08,01,17,03,19.20
2014,08,01,17,04,19.10
2014,08,01,17,05,19.10
2014,08,01,17,06,19.10
2014,08,01,17,07,19.10
2014,08,01,17,08,19.20
2014,08,01,17,09,19.20
2014,08,01,17,10,19.20
2014,08,01,17,11,19.30
2014,08,01,17,12,19.30
2014,08,01,17,13,19.40
2014,08,01,17,14,19.40
2014,08,01,17,15,19.50
2014,08,01,17,16,19.60
2014,08,01,17,17,19.70
2014,08,01,17,18,19.80
2014,08,01,17,19,19.80